RH
27 29 31 31 33 35 38 43 47 52 55 57 59 63 67 72 76 80 81 83 86 91 98 99 95 94 96 98 97 97 95 86 77 74 72 71 70 68 65 61 61 64 66 68 55 32 26 38 55 79 96 93 91 98 101 99 98 93 86 82 80 70 60 57 47 28 22 22 17 13 13 13 12 12 14 16 18 19 18 17 17 17 18 21 22
26 28 30 32 33 34 37 40 44 50 54 58 61 63 66 69 74 79 84 85 86 92 100 101 98 96 96 100 100 98 98 94 84 75 72 71 69 67 65 60 59 63 65 66 62 47 34 36 44 65 88 92 86 87 91 89 83 81 79 68 60 58 52 49 46 35 27 24 18 14 14 15 13 11 11 12 13 15 16 16 16 16 17 17 19
24 26 29 31 32 34 36 39 41 45 49 54 60 63 66 68 71 77 84 86 86 92 100 101 99 96 95 99 102 99 98 99 92 81 73 70 69 66 64 61 58 61 65 66 66 58 44 35 33 44 61 67 63 62 64 62 56 61 72 63 44 42 48 51 49 41 34 29 21 17 16 17 15 11 11 11 11 12 13 14 14 14 16 16 17
23 24 27 29 31 32 34 35 38 41 45 50 56 60 64 68 71 75 82 86 86 90 98 100 97 96 96 98 102 102 98 100 100 93 82 72 68 67 64 62 60 61 63 66 68 66 56 42 30 29 35 36 35 36 36 39 43 50 62 63 48 42 48 53 51 44 39 34 27 22 21 22 20 16 14 13 11 10 10 11 12 12 13 15 15
25 24 26 27 29 30 31 33 35 38 41 46 53 59 62 66 71 75 80 85 87 90 97 99 97 97 97 95 99 103 100 97 99 100 96 83 70 66 65 64 62 62 63 64 67 68 64 54 40 30 27 24 24 25 29 46 67 76 77 75 66 60 57 56 54 50 44 36 28 25 25 26 24 20 20 19 15 13 12 11 11 11 11 12 13
28 26 26 27 28 29 30 32 33 36 39 44 51 59 62 64 70 76 79 84 88 91 96 99 97 97 98 95 96 102 101 96 93 96 101 97 84 71 65 63 63 63 63 62 62 63 59 55 48 39 30 25 24 27 36 58 81 90 91 86 77 71 67 62 59 57 55 47 37 33 31 28 26 23 25 27 23 19 16 13 13 13 12 12 12
38 32 29 28 29 29 30 31 31 33 37 42 51 58 61 65 72 77 81 85 88 90 94 98 97 96 98 96 94 98 100 97 91 89 94 99 98 89 76 68 64 62 63 62 60 58 51 45 41 36 31 28 27 29 38 56 72 80 88 93 89 81 73 66 64 62 63 61 55 50 44 36 31 28 32 37 34 28 22 17 13 11 12 14 15
50 45 39 35 32 30 29 29 31 33 34 39 50 58 61 66 73 79 83 85 87 89 93 97 96 94 95 95 95 97 98 98 94 90 89 92 97 98 91 83 74 66 63 63 63 61 55 45 36 30 28 29 30 31 33 43 56 64 73 86 92 86 71 65 67 67 66 66 63 61 58 53 45 39 40 46 43 32 23 18 14 12 14 15 15
57 55 52 48 44 40 36 32 31 33 34 38 48 56 61 68 73 79 84 86 86 89 94 96 94 93 93 94 96 96 94 96 97 95 93 92 93 98 97 92 87 81 72 66 63 63 63 58 49 38 31 28 30 34 34 36 42 49 59 71 80 79 73 72 73 70 68 69 67 67 69 66 58 49 47 51 46 36 35 36 29 21 22 23 19
58 59 59 58 56 55 53 48 41 36 35 39 49 56 62 68 73 79 85 87 86 89 95 97 94 91 93 96 97 97 95 95 96 95 94 92 90 96 100 97 93 90 86 78 70 65 63 64 62 56 46 37 31 31 33 36 37 40 47 56 62 67 74 81 80 74 72 71 67 71 76 72 66 60 56 56 54 51 56 58 45 34 35 35 27
57 59 60 61 61 61 63 64 60 51 43 43 52 60 65 70 73 79 87 88 87 89 96 100 96 91 94 96 98 100 100 98 95 94 96 94 89 90 98 102 99 96 94 88 80 72 66 64 64 63 60 53 45 37 33 33 35 37 40 45 51 57 66 75 76 74 73 69 67 74 79 77 75 74 70 67 68 65 63 61 53 46 48 49 38
58 59 60 61 62 62 63 67 70 68 60 54 57 62 67 73 76 81 88 91 88 89 96 100 98 94 94 97 99 101 100 99 96 95 96 96 93 91 93 98 100 100 99 95 90 82 74 68 66 65 64 62 58 53 46 39 36 37 39 43 49 55 62 68 70 71 72 69 68 74 78 77 79 83 83 79 76 70 63 59 59 54 55 60 54
61 62 61 61 62 63 63 64 69 74 74 68 65 65 68 74 80 84 90 95 90 87 94 98 97 96 94 95 97 99 99 98 96 96 98 98 97 97 96 95 96 98 98 97 95 92 85 78 72 67 66 66 63 61 58 53 48 44 44 47 49 52 59 65 65 67 71 72 70 71 75 79 81 81 83 84 83 80 71 63 60 57 56 62 59
55 61 64 63 62 62 63 65 67 72 77 77 75 73 72 75 82 87 93 98 93 87 90 94 94 95 93 91 91 93 97 99 96 96 98 98 98 99 100 99 98 98 98 97 96 97 95 91 84 75 69 67 66 64 62 60 57 54 50 49 49 51 55 58 57 59 65 68 66 68 76 83 81 77 80 88 94 92 87 79 71 65 65 67 63
44 53 61 64 64 64 64 66 69 71 75 80 80 80 78 79 84 90 95 99 96 88 87 91 92 93 93 91 88 89 96 101 100 98 98 99 99 99 99 101 101 100 101 100 99 99 99 99 97 90 79 70 65 65 63 61 59 56 52 49 47 48 49 49 49 52 58 61 60 65 76 83 85 85 89 96 99 98 98 96 91 88 89 87 77
37 42 51 59 64 66 65 66 71 73 74 78 81 82 82 82 85 91 97 102 99 90 86 89 91 91 94 96 90 88 95 102 102 100 99 100 101 99 98 99 100 100 100 101 101 101 100 100 100 100 94 84 73 66 63 61 58 54 52 49 47 45 44 44 47 51 57 59 58 63 72 80 86 93 98 100 100 100 101 101 100 100 101 96 86
33 37 42 49 56 64 67 67 70 75 76 77 79 81 83 85 86 91 96 102 103 94 87 89 91 89 93 98 96 90 93 100 103 101 98 99 100 101 98 96 97 100 100 100 100 101 101 100 100 100 101 99 91 81 72 64 60 56 53 51 49 46 44 46 49 53 57 58 58 61 69 76 83 92 99 101 101 101 102 101 101 101 100 96 89
21 29 36 42 46 54 63 68 70 75 77 78 79 81 84 86 89 92 96 101 104 99 90 88 91 90 90 95 100 97 93 98 102 101 100 99 99 100 99 96 95 97 99 99 100 100 100 100 100 100 100 101 101 98 90 79 70 63 58 54 52 49 48 50 52 54 57 60 60 61 67 73 80 88 95 98 101 102 101 100 101 101 101 98 93
9 16 26 36 41 45 53 63 70 75 78 81 83 83 85 89 92 95 99 101 103 102 94 89 91 95 92 91 98 101 100 100 101 100 101 102 100 98 99 99 97 94 93 94 98 101 101 100 100 100 100 101 102 102 101 94 83 75 69 62 56 54 55 56 57 58 60 62 62 63 66 72 79 85 88 92 98 102 101 101 100 100 100 100 98
6 8 13 23 34 40 45 53 64 74 78 83 85 83 85 93 99 100 102 103 102 102 98 91 89 94 95 92 94 99 102 103 102 100 100 102 101 100 100 100 100 96 92 90 93 98 101 101 101 101 99 100 101 103 104 101 95 90 85 76 69 70 71 68 64 64 65 66 69 69 71 76 82 85 89 94 98 100 100 101 100 98 99 101 100
6 6 7 11 22 34 41 45 54 68 77 84 87 85 86 95 102 102 101 101 100 100 101 97 93 94 97 96 96 98 100 102 102 102 101 101 101 101 100 101 101 98 95 93 93 97 101 100 101 101 100 100 102 102 103 103 101 98 94 88 87 91 93 87 80 76 72 69 71 74 76 81 85 90 96 101 101 100 100 101 100 100 101 99 93
6 6 6 8 14 27 39 43 47 58 72 83 88 88 89 95 100 99 97 96 95 96 99 100 98 97 97 98 99 99 100 101 101 101 102 102 101 100 100 100 100 98 97 97 97 99 101 100 100 101 101 101 101 101 100 101 101 99 96 95 97 101 102 100 97 94 88 79 72 70 73 78 81 88 96 99 98 98 101 101 100 101 101 95 88
6 6 6 8 11 20 33 42 45 50 63 79 89 91 93 96 98 97 96 94 94 94 95 95 96 97 99 100 99 99 100 102 100 97 97 99 100 101 101 100 100 99 98 97 98 99 101 102 100 100 101 101 101 101 101 100 101 101 100 100 99 100 101 102 102 101 99 94 83 73 68 70 73 79 85 91 94 98 100 100 100 101 101 97 92
6 6 6 6 9 14 26 39 45 47 54 71 86 92 95 97 99 99 97 95 93 93 93 93 92 92 97 101 101 100 101 102 100 97 94 94 96 99 101 101 100 99 98 96 95 95 98 101 101 100 100 100 99 99 98 98 98 99 100 101 101 100 100 100 101 100 101 102 96 84 74 68 68 71 77 86 94 99 101 101 99 99 102 100 96
6 6 6 6 7 11 21 34 44 47 50 61 77 90 97 100 102 101 99 97 94 93 93 93 91 88 90 96 100 101 101 100 98 96 93 90 91 94 99 102 101 100 98 95 93 92 95 99 100 100 100 100 100 99 98 97 97 96 96 98 101 102 101 100 100 101 101 101 99 94 87 77 71 73 82 92 98 102 103 102 98 98 101 101 96
6 6 6 6 6 9 16 28 40 48 51 54 65 81 95 102 104 102 100 97 95 95 94 94 92 88 88 92 96 98 99 98 95 93 90 89 90 94 99 102 102 100 99 96 94 93 95 98 100 100 100 101 102 101 100 100 100 98 97 99 100 101 101 100 100 101 101 100 99 98 95 89 85 87 94 100 102 102 103 102 100 100 101 99 97
7 7 6 6 6 8 14 26 41 51 55 56 61 72 86 97 101 100 97 95 94 96 96 94 90 86 86 90 94 95 96 95 92 89 87 88 91 96 101 103 102 101 101 100 98 97 98 99 99 100 101 102 100 98 98 100 101 100 100 100 101 101 100 99 100 101 99 98 99 101 100 98 98 99 102 102 101 101 101 101 101 101 100 99 99
7 7 6 6 7 6 10 23 40 51 55 59 62 67 77 89 96 96 93 91 91 92 92 90 88 84 82 84 87 91 93 93 91 88 86 89 94 98 101 102 102 102 103 102 102 101 101 101 101 100 101 101 97 94 95 98 100 101 100 100 100 101 101 100 100 100 97 96 98 102 102 102 102 102 101 101 101 101 100 101 101 101 100 101 101
8 7 7 6 7 6 8 16 31 45 55 63 66 66 68 77 87 94 93 90 88 87 85 84 83 83 83 83 84 85 87 88 88 87 87 90 94 96 97 98 100 102 103 102 103 103 103 103 103 103 101 99 95 93 96 99 101 101 100 100 100 100 101 101 100 100 100 100 100 102 102 101 101 100 100 101 101 100 100 101 102 102 101 102 101
9 8 7 6 6 6 6 9 19 35 51 64 71 72 69 67 72 81 86 87 85 84 83 83 83 83 84 86 87 86 85 85 85 86 88 92 96 96 93 94 98 102 103 103 103 103 102 103 103 102 100 97 93 92 95 98 100 101 100 100 100 100 100 100 100 100 102 103 104 104 104 102 100 101 101 101 100 100 100 101 102 103 101 101 101
11 9 7 7 7 7 6 7 12 24 40 56 67 75 78 74 69 68 72 76 79 80 80 82 84 86 86 88 90 91 89 88 88 88 90 95 99 99 97 97 100 104 104 104 103 102 101 101 101 100 97 94 92 93 95 96 98 100 100 100 100 100 100 100 100 99 99 101 104 104 103 101 101 102 101 101 102 102 101 101 101 101 102 101 101
14 10 9 7 7 7 6 6 7 12 26 44 58 69 78 84 82 76 71 69 73 78 81 83 85 88 90 92 92 92 91 90 89 91 95 100 102 102 101 102 103 104 104 104 102 102 102 101 100 98 96 94 94 96 98 98 97 97 99 100 100 100 100 100 101 101 100 100 101 102 101 101 101 101 100 101 102 101 101 102 102 102 102 102 99
18 13 10 8 7 7 7 7 7 7 14 30 47 60 70 80 88 90 86 79 74 74 80 85 88 91 94 96 95 94 92 91 92 95 99 103 104 104 104 103 102 101 102 102 101 101 103 103 101 99 97 96 97 100 103 103 100 97 97 98 99 101 101 100 100 101 101 101 100 99 99 100 100 101 101 101 101 102 103 102 100 98 99 101 99
24 16 12 10 8 7 7 7 8 7 8 16 31 48 60 69 76 84 91 91 87 81 81 85 90 93 96 97 97 96 95 95 97 100 102 102 103 104 104 102 101 100 101 101 101 101 101 100 98 98 98 98 100 102 104 104 102 99 99 99 99 99 100 100 100 100 100 101 101 100 99 100 100 100 101 101 101 103 104 101 97 96 98 100 100
30 21 16 12 9 8 8 7 8 8 7 9 17 32 49 61 68 73 78 85 90 91 88 88 90 93 96 95 94 95 96 96 99 100 100 99 101 103 102 100 100 101 101 101 101 100 98 97 96 97 98 100 101 102 103 104 102 101 100 100 99 99 99 99 100 101 100 100 101 101 100 101 101 100 101 101 101 102 102 100 98 98 100 100 100
36 26 20 15 11 9 8 8 8 8 8 7 10 20 35 52 64 70 72 74 79 85 87 87 87 89 92 92 90 90 93 96 98 99 98 97 98 100 101 100 100 101 102 101 100 98 97 97 97 97 98 99 99 100 101 102 102 102 102 101 100 100 100 100 100 100 99 99 99 99 100 100 101 102 102 101 100 99 99 101 101 100 99 100 100
41 31 24 19 14 11 9 8 8 8 8 8 8 11 20 35 54 68 73 73 75 79 84 86 86 87 89 90 89 89 91 93 95 98 100 100 100 101 102 101 100 100 100 100 99 98 98 98 98 98 99 98 96 97 98 99 100 102 103 103 102 101 101 101 99 99 99 98 96 97 100 100 100 101 101 99 98 98 98 101 103 101 100 100 100
46 36 29 23 17 13 11 9 8 8 8 9 8 8 10 19 37 58 71 75 75 77 82 87 89 90 92 95 96 94 92 90 89 91 94 98 99 100 101 101 99 99 98 98 98 97 96 97 97 97 97 96 95 95 96 97 100 102 102 102 103 102 102 102 101 100 99 99 97 97 99 100 101 101 99 97 97 99 101 102 101 101 101 101 101
50 40 34 27 20 16 13 11 10 9 8 8 9 9 8 9 19 39 59 72 76 77 79 84 88 91 94 97 99 99 97 95 94 95 96 98 98 99 100 101 101 100 100 99 99 99 97 96 96 94 93 93 94 93 93 95 99 102 102 102 102 102 103 103 103 101 100 100 99 99 100 101 101 101 100 99 98 99 101 101 101 102 103 101 101
54 45 38 30 24 19 16 13 11 9 9 8 8 9 10 9 10 19 37 57 72 78 79 81 84 89 93 95 98 100 102 102 102 101 100 100 99 99 99 100 100 101 101 100 100 100 99 99 98 96 93 92 93 93 93 94 96 100 102 102 102 102 103 103 102 102 101 101 101 101 101 101 101 101 100 100 100 100 100 97 97 99 102 102 102
59 49 43 35 28 23 19 15 12 10 9 9 9 8 9 10 10 10 17 32 51 67 77 80 81 84 88 91 94 95 97 98 99 99 99 99 99 99 99 100 100 100 100 100 100 100 100 99 99 99 97 96 94 94 94 94 95 97 100 101 101 101 101 102 102 102 101 102 102 101 100 100 101 101 100 100 100 100 101 99 96 96 99 102 101
63 54 47 40 33 27 22 18 15 12 10 9 10 9 9 10 10 10 11 14 23 38 56 70 77 80 83 85 87 89 90 91 92 94 95 95 95 95 95 96 98 100 100 100 100 99 99 99 99 100 100 99 97 96 96 96 96 96 98 100 101 101 100 101 102 102 102 102 102 101 99 98 99 100 100 101 100 100 100 100 98 97 98 101 102
68 58 51 44 37 32 27 21 17 14 12 10 10 10 10 10 10 10 11 11 12 16 25 41 57 71 79 82 83 84 86 88 89 90 90 91 92 93 93 93 93 94 96 99 101 100 99 99 99 100 102 102 100 98 98 98 98 98 97 99 100 100 100 101 101 102 103 104 103 102 100 98 99 100 100 100 100 100 100 101 100 99 99 100 101
72 62 55 48 41 36 31 25 20 16 13 12 11 11 10 10 10 10 10 11 12 11 12 17 28 45 62 75 82 84 84 84 85 87 87 86 86 88 91 92 92 92 92 93 95 97 98 99 100 101 101 102 101 100 100 100 101 100 99 99 99 100 100 101 100 101 102 102 101 102 101 100 100 100 100 100 100 100 100 100 100 100 100 100 100
77 67 59 52 45 40 35 29 24 20 16 13 12 11 11 11 11 11 11 11 11 12 12 12 13 19 31 47 64 77 84 86 86 85 85 84 83 82 82 84 87 90 91 92 93 93 93 95 98 101 102 102 101 100 100 101 102 102 101 100 100 100 100 100 100 100 101 101 101 100 100 100 101 100 100 101 100 100 100 101 100 100 100 100 100
83 73 63 55 48 44 38 32 27 23 19 15 14 13 12 12 12 11 12 12 11 11 12 12 12 13 15 20 32 47 62 76 84 88 89 87 85 82 81 80 81 82 84 86 89 91 93 94 94 96 99 101 101 101 101 101 102 103 102 101 101 101 101 100 100 100 101 101 102 101 100 100 100 100 101 101 101 100 100 100 100 101 100 100 100
89 78 68 59 52 47 42 36 31 27 22 18 16 14 13 13 13 13 12 12 12 12 12 12 12 13 14 14 15 20 29 42 57 72 83 91 93 91 88 86 85 85 84 83 83 83 86 90 93 94 96 97 98 100 101 102 101 101 102 102 102 102 101 100 100 101 101 101 100 101 101 101 100 100 100 101 100 101 101 100 100 101 101 100 100
94 84 73 63 57 51 46 39 34 30 26 21 18 16 14 14 14 14 14 14 14 13 14 14 13 13 13 14 14 15 16 19 25 36 50 65 80 89 94 94 93 91 89 89 88 85 82 81 84 88 93 96 98 98 99 100 101 102 101 101 102 102 102 101 100 100 100 100 100 101 102 102 101 102 102 101 100 99 99 99 100 101 100 100 100
97 89 78 69 61 55 50 43 38 33 29 25 21 18 16 15 15 15 15 15 15 15 15 15 15 14 14 14 14 14 15 16 17 18 22 28 39 55 70 83 92 96 96 93 92 91 88 84 81 80 83 89 95 99 99 99 99 100 101 102 102 102 102 102 102 101 101 100 100 101 101 102 101 102 103 103 103 101 99 99 100 100 100 100 101
99 94 84 74 67 60 54 48 42 37 33 29 25 22 19 17 16 16 16 16 16 16 16 16 16 16 16 16 16 15 15 15 16 17 18 18 19 24 32 44 60 76 89 96 97 96 93 90 85 81 77 78 82 90 97 100 101 100 99 100 101 102 102 102 102 102 102 102 102 101 101 101 101 101 101 102 102 102 101 101 100 100 100 100 100
101 98 90 80 72 65 58 52 45 40 36 33 29 26 22 19 18 17 17 17 17 17 17 17 18 18 18 17 17 17 17 17 17 16 16 17 18 19 20 22 27 37 52 68 83 93 97 97 93 88 82 76 74 76 82 90 97 101 102 100 99 100 101 102 102 101 102 102 102 102 102 101 101 101 101 101 101 101 101 101 101 101 101 101 100
Wind_Speed
20 19 18 19 18 19 19 19 19 20 21 22 22 23 23 24 24 25 26 28 30 32 33 33 31 29 29 30 32 31 28 23 19 15 15 18 21 25 28 32 35 37 38 39 40 41 42 42 43 45 47 49 52 54 56 57 57 56 54 53 52 52 52 53 56 61 61 61 62 62 60 59 60 61 62 63 63 63 63 63 63 64 65 65 65
21 20 19 19 19 19 20 20 20 20 20 21 22 23 24 25 25 25 26 27 29 31 32 32 30 29 28 28 29 30 28 25 22 17 14 13 16 20 24 28 31 34 36 37 39 40 41 42 44 46 49 50 52 55 57 58 57 56 55 54 53 52 52 52 54 57 59 58 60 60 58 56 58 59 60 62 63 64 63 63 63 64 66 66 67
22 21 21 20 20 20 21 21 21 21 21 21 22 23 24 25 26 26 25 26 28 29 31 31 30 28 27 26 26 27 27 26 23 20 16 12 12 15 20 24 27 29 32 34 36 38 40 42 44 46 49 52 53 54 54 55 54 53 52 51 51 50 49 50 51 54 56 56 56 57 54 53 55 57 58 60 62 63 63 63 63 64 66 67 68
23 23 22 22 22 22 22 22 22 23 22 22 22 23 24 24 25 25 25 25 26 28 29 30 29 28 26 25 24 25 25 25 24 22 19 15 11 10 14 18 21 24 27 29 32 35 38 40 42 45 48 49 50 50 49 47 44 45 47 46 47 48 48 48 49 51 53 54 53 53 51 50 51 54 55 56 59 61 62 62 61 62 64 66 67
23 24 24 24 23 23 23 23 23 23 23 22 22 23 23 23 24 24 25 25 25 26 27 28 29 28 26 24 22 22 23 22 22 22 21 17 13 9 9 12 16 19 22 25 28 32 35 38 40 43 45 46 47 47 45 39 34 35 40 43 43 45 47 48 48 49 50 51 51 50 49 48 49 50 51 52 54 56 58 60 59 60 62 63 65
24 25 25 25 25 24 24 24 23 23 23 23 22 22 22 22 22 22 23 23 24 25 26 27 28 27 25 24 21 19 20 20 19 19 19 18 15 12 10 10 13 16 20 23 25 29 32 34 37 39 42 43 43 43 41 38 35 32 35 39 42 44 46 47 47 48 48 48 48 47 47 47 47 48 49 49 51 52 54 56 57 57 58 60 61
25 26 26 26 26 26 25 24 24 24 24 23 22 22 22 21 20 21 21 22 22 24 25 26 27 26 25 23 21 18 18 18 18 17 16 16 15 14 12 11 12 15 18 21 24 27 30 32 33 35 37 38 38 38 37 39 39 36 33 33 36 39 44 45 45 46 47 47 46 46 45 44 45 47 47 47 49 50 51 54 56 56 56 56 57
27 26 26 27 26 26 26 25 24 24 24 24 23 22 21 20 19 19 19 20 21 22 24 25 25 25 24 22 21 19 17 17 18 17 16 15 14 14 13 12 12 13 16 19 22 25 28 30 31 32 33 35 36 35 36 38 41 41 38 34 32 34 39 42 43 43 44 45 45 45 44 43 43 45 45 46 48 50 50 52 54 53 52 51 53
28 27 27 27 27 26 26 25 24 24 24 24 23 22 21 19 18 18 19 19 20 21 22 24 24 24 22 21 21 19 17 17 17 17 16 15 14 13 14 13 12 12 13 16 19 22 25 28 30 30 31 32 34 35 36 37 39 41 42 40 37 34 35 38 40 41 42 42 43 43 43 42 42 42 44 45 46 46 47 48 50 49 46 46 49
28 28 27 27 27 26 26 25 24 24 24 23 22 22 20 19 18 17 18 19 19 19 21 22 24 23 22 21 20 19 18 17 16 16 16 15 13 11 12 13 13 12 11 11 14 18 21 24 27 29 31 32 33 35 36 37 38 39 40 41 41 38 35 36 39 40 40 40 41 41 41 41 40 40 42 43 43 43 44 46 46 44 42 42 44
28 28 28 28 28 27 26 25 24 24 24 22 21 21 20 19 18 17 17 18 18 18 19 21 22 22 21 19 19 18 17 16 16 16 16 16 14 11 9 10 12 13 12 10 10 13 16 20 23 26 29 31 32 33 35 36 38 38 38 38 38 37 37 38 40 40 39 39 39 39 39 39 38 37 39 39 39 41 43 43 42 42 39 37 39
27 28 28 28 28 27 27 25 24 24 24 22 22 21 20 19 18 17 17 17 17 17 18 20 20 21 20 19 17 16 15 15 16 16 16 17 16 14 10 8 9 11 12 11 9 8 11 14 18 22 25 28 30 31 33 35 36 37 37 37 36 35 36 38 39 39 39 39 38 38 39 37 36 35 35 34 35 37 39 40 40 40 36 34 35
26 27 28 28 28 27 27 26 24 24 24 23 22 21 20 19 18 17 17 17 17 15 16 18 19 19 19 18 15 14 13 14 15 16 17 17 17 16 13 11 10 10 11 11 10 8 7 8 12 16 20 23 26 29 31 33 34 35 36 36 35 35 36 38 39 38 38 38 38 37 37 36 35 34 33 32 32 33 35 37 38 38 35 33 33
25 25 26 27 27 27 26 26 25 24 24 23 23 22 21 20 19 18 18 18 17 15 15 16 17 18 18 17 15 13 12 13 14 15 17 19 19 18 15 13 11 11 12 12 11 10 8 7 7 10 14 18 21 24 27 30 32 33 34 34 34 35 37 39 38 37 37 38 37 36 36 35 34 33 31 29 30 31 32 33 33 32 31 31 32
25 25 25 26 27 26 26 26 25 24 24 23 23 23 22 21 20 19 18 18 18 16 14 15 16 17 17 17 16 13 12 13 15 14 16 20 22 20 17 14 11 10 11 12 12 12 10 8 7 7 9 12 15 18 21 24 27 29 30 32 33 35 37 37 35 34 35 36 35 35 35 35 34 32 29 28 28 28 30 30 27 25 26 30 32
25 25 25 25 26 26 26 25 24 24 24 23 23 23 22 22 21 20 19 19 19 17 15 15 16 16 16 16 17 15 13 13 14 12 12 17 20 19 18 15 12 10 9 10 12 12 11 11 10 8 8 8 10 12 15 17 20 23 25 28 31 33 33 32 31 31 33 35 34 35 35 35 34 32 30 29 28 25 27 29 28 26 29 33 34
25 25 25 25 25 26 26 25 24 24 23 23 24 23 23 22 22 21 20 18 18 18 17 17 17 16 15 16 16 16 14 14 15 13 9 8 12 16 18 17 14 12 10 9 10 11 11 12 12 11 9 8 8 10 11 13 15 17 20 24 27 30 29 28 29 31 33 34 34 34 35 36 36 34 32 32 30 27 29 31 30 31 33 34 34
25 25 25 25 25 25 25 25 23 22 22 23 23 24 23 22 22 22 21 19 18 18 17 18 18 17 17 16 16 16 16 15 16 16 13 9 11 14 16 16 16 15 13 10 9 9 11 12 13 13 11 9 10 10 11 12 13 15 17 20 23 26 25 26 29 31 32 33 34 34 35 37 37 36 35 34 32 31 33 34 32 32 35 35 33
26 25 24 24 25 25 24 24 23 22 21 21 23 24 23 22 21 22 21 20 19 18 17 17 17 18 18 18 18 18 18 17 17 18 17 14 14 15 16 17 18 18 17 14 11 10 11 12 14 15 14 11 11 12 12 14 15 15 16 18 20 21 21 23 26 28 30 32 33 33 35 36 38 38 37 36 33 33 35 37 34 33 35 35 33
28 26 25 24 24 24 24 24 23 22 20 20 21 23 23 21 20 20 20 21 20 19 18 17 17 17 18 19 20 20 20 19 18 18 19 18 18 18 18 20 21 21 20 17 13 10 10 12 14 16 17 15 13 12 13 14 16 16 16 17 17 16 17 20 24 26 28 30 31 32 34 35 37 38 36 36 35 34 35 37 37 35 35 35 34
29 28 27 25 24 23 23 23 23 22 20 19 20 21 21 20 19 18 19 20 20 19 18 17 17 17 17 18 19 20 21 21 19 19 20 20 19 20 20 21 23 24 22 20 16 13 12 12 13 15 17 17 15 14 13 14 15 16 17 17 15 13 15 18 21 23 28 30 31 33 34 35 37 38 37 37 36 34 33 36 38 38 38 36 34
30 29 28 26 25 23 23 23 23 22 21 19 18 19 19 19 18 18 17 18 18 18 18 17 17 17 17 18 18 19 21 22 22 21 21 21 21 22 23 24 24 25 24 21 19 16 14 13 12 13 16 18 17 16 16 15 17 18 17 16 14 13 14 16 18 21 26 30 32 34 35 36 38 39 39 39 37 33 33 35 38 40 39 37 35
30 29 28 27 26 24 22 22 22 22 21 20 18 18 18 18 18 18 17 17 17 17 17 17 16 16 16 17 19 20 21 22 24 24 23 22 22 23 24 25 26 26 25 23 20 18 16 15 13 13 15 18 19 19 19 18 19 21 19 17 15 15 16 18 19 21 24 28 33 35 36 37 37 38 39 38 36 33 33 35 36 37 37 37 36
30 29 28 27 26 24 23 21 20 21 20 19 19 18 18 18 19 19 18 18 17 17 17 17 16 15 15 16 18 20 21 22 23 24 24 23 23 23 24 25 26 26 25 24 22 19 17 15 14 14 15 16 17 19 20 20 21 23 22 19 17 17 20 22 23 22 23 27 32 35 36 36 37 37 36 35 34 34 35 34 33 34 34 34 33
29 29 28 27 26 25 23 21 20 20 19 18 18 18 18 18 20 21 21 20 19 18 18 17 17 16 15 15 17 19 21 22 23 23 24 24 24 23 23 24 25 26 26 25 23 20 18 16 15 14 15 15 15 16 18 20 22 23 23 22 20 20 21 24 24 22 22 25 30 33 34 35 36 35 34 33 34 36 37 35 34 35 34 32 31
29 29 28 27 26 25 24 22 21 19 18 18 17 17 17 18 19 21 21 21 20 19 19 19 19 18 16 16 17 19 20 21 22 23 23 24 24 23 22 22 24 25 25 24 23 21 20 18 16 15 15 15 15 15 15 17 19 21 23 23 23 22 22 22 22 21 21 23 26 29 31 32 32 31 31 32 35 38 38 36 35 35 33 31 29
28 27 27 27 26 25 24 23 22 20 18 17 16 17 17 17 18 20 21 21 20 20 20 20 20 19 17 16 17 18 19 20 21 21 22 23 23 22 21 22 23 23 23 23 22 21 21 19 17 16 16 15 15 15 15 16 16 18 21 23 24 24 21 19 18 20 20 21 22 24 25 26 27 27 29 31 34 37 38 37 35 33 32 31 30
27 26 26 26 26 24 23 22 22 21 19 16 16 16 17 18 18 19 20 20 20 20 20 20 19 18 17 17 17 17 18 18 19 20 20 21 21 20 20 21 22 21 21 21 22 22 21 21 19 18 17 17 17 16 16 16 16 17 18 21 24 24 22 18 18 18 18 18 18 19 21 24 25 26 28 30 33 35 36 36 35 33 32 32 31
26 25 25 25 25 24 23 22 21 20 19 17 16 15 16 17 19 19 19 19 19 19 19 19 18 17 17 17 17 17 17 17 18 19 19 19 19 18 18 19 19 19 19 20 21 21 21 21 20 19 18 18 18 17 17 16 16 17 18 19 21 24 23 20 18 15 14 15 16 18 21 24 27 28 30 31 32 33 34 35 35 34 34 35 33
25 24 24 24 24 23 22 21 21 20 19 18 17 16 15 15 17 19 19 18 18 18 18 18 18 17 16 16 17 17 17 17 18 19 19 18 17 16 16 16 15 15 16 18 18 18 19 19 19 19 18 18 18 18 17 16 15 16 17 18 19 22 24 22 19 15 12 13 14 16 20 24 27 30 31 32 31 32 33 34 34 35 35 36 35
23 23 23 22 22 22 21 21 20 19 18 18 17 17 16 15 15 17 19 19 18 17 17 17 17 17 16 16 15 16 17 18 19 19 19 17 16 16 15 14 12 12 13 13 13 14 15 15 15 16 16 16 16 16 16 16 15 15 17 17 18 20 23 24 22 18 16 15 14 15 17 20 22 25 27 28 29 30 31 31 32 34 34 35 36
22 22 22 21 21 21 20 20 19 19 18 17 16 16 16 16 16 16 17 19 20 19 17 17 16 16 16 15 15 15 16 18 18 18 18 16 15 15 14 12 11 11 11 10 10 10 10 11 12 12 12 13 13 13 14 15 15 15 16 17 18 19 22 25 25 23 20 19 18 17 16 15 17 19 21 23 25 27 28 29 30 31 32 33 35
21 21 21 20 20 20 19 19 18 18 18 17 16 15 15 15 15 16 16 17 19 19 18 17 16 16 15 15 15 16 17 18 17 16 14 14 13 14 13 12 10 10 9 8 8 8 8 8 8 8 9 9 9 10 11 12 14 15 16 17 18 18 20 23 26 27 26 24 23 22 20 19 19 20 20 22 23 23 25 26 26 26 28 30 32
21 20 20 19 19 19 18 18 18 17 17 17 16 15 14 13 14 14 15 16 17 18 18 17 16 16 15 15 15 17 17 17 15 13 12 11 11 11 12 11 10 9 9 9 9 8 7 6 6 6 7 7 7 8 9 10 12 14 15 16 17 18 19 20 22 25 28 28 28 26 26 25 26 25 25 25 24 23 23 24 24 22 22 25 28
21 20 19 18 18 18 18 17 17 17 16 16 16 15 14 13 13 13 13 14 15 16 17 17 16 15 14 14 14 15 16 15 12 10 10 9 8 8 9 9 9 10 10 9 9 8 7 6 6 6 7 8 8 8 8 9 10 12 14 16 17 18 19 21 21 22 24 27 29 29 29 29 30 30 30 29 28 25 24 23 24 23 21 21 23
21 20 19 18 17 17 17 17 16 16 16 16 15 15 14 13 13 13 13 13 13 14 15 16 15 14 13 13 13 14 15 15 13 11 9 8 7 7 8 8 9 10 10 9 9 8 7 7 7 7 8 8 9 9 9 9 9 11 13 15 17 17 19 21 23 23 24 25 27 29 30 31 32 32 32 32 30 27 24 23 24 24 23 21 21
20 20 20 19 17 17 16 16 16 16 16 15 15 15 14 13 13 13 13 13 14 14 13 14 14 14 13 13 13 14 15 14 12 10 9 7 7 6 7 9 10 10 10 9 9 9 9 9 8 8 8 8 9 9 9 9 10 10 11 13 15 17 18 20 22 23 24 25 25 26 29 32 33 33 33 33 31 28 26 24 23 23 24 23 23
20 19 19 18 18 17 16 16 16 16 16 15 15 15 14 13 12 12 12 12 13 14 13 13 13 13 13 12 13 13 14 14 13 11 9 8 7 7 7 8 9 10 10 10 10 10 10 10 10 10 9 9 9 10 10 10 10 11 12 12 13 14 16 18 19 21 22 23 24 24 26 29 32 33 33 33 31 30 28 25 23 24 26 25 24
20 19 18 18 17 17 16 16 16 15 15 15 15 15 14 14 13 12 12 12 12 13 13 12 12 11 12 12 11 12 13 13 14 13 12 11 11 9 9 8 9 10 11 11 11 11 11 11 11 11 10 10 10 10 10 10 9 10 11 13 13 13 14 15 17 18 19 20 21 21 22 24 28 32 34 33 32 31 29 27 25 26 26 25 23
20 18 17 17 16 16 16 15 15 15 15 15 15 15 15 14 13 13 12 12 12 12 12 12 11 10 10 10 10 10 10 10 11 11 12 12 12 11 11 10 10 10 11 11 12 12 11 11 11 11 11 11 10 10 10 10 9 9 10 12 13 14 14 14 15 15 16 17 18 19 19 20 23 28 32 33 32 31 30 29 29 28 27 25 24
20 18 17 17 16 15 15 14 14 14 14 14 14 15 14 14 13 13 12 12 12 12 12 12 11 10 10 9 9 9 9 9 9 10 10 10 11 11 11 11 11 11 11 11 11 12 12 12 12 11 11 11 11 11 10 10 10 10 9 10 12 13 14 14 14 15 15 15 16 17 18 18 19 23 29 32 33 31 31 31 31 30 29 28 27
20 19 18 17 16 14 14 14 13 13 13 13 14 14 14 14 13 12 12 12 12 12 12 12 11 11 10 10 10 10 10 10 10 10 10 10 10 10 10 11 11 11 11 11 11 11 11 12 12 11 11 11 11 11 11 11 11 10 9 9 10 11 12 14 15 15 15 15 16 17 17 17 17 18 23 29 33 34 33 33 33 32 32 32 31
21 19 18 17 16 15 14 13 13 13 13 13 13 13 14 14 13 13 12 11 11 12 12 13 13 12 11 10 10 10 11 11 11 11 11 11 10 10 10 10 10 11 11 11 11 11 11 11 11 11 11 11 11 11 11 11 11 11 10 9 9 9 10 12 13 14 15 15 16 17 17 18 17 16 18 22 28 32 34 35 34 34 33 33 32
20 19 18 17 16 14 13 13 13 12 12 12 12 12 13 13 13 13 12 11 11 11 12 12 13 13 12 12 11 11 11 11 11 11 11 11 11 11 11 10 10 10 10 11 11 11 11 10 10 11 11 11 11 11 10 10 10 11 11 10 9 9 9 10 11 12 13 14 15 16 17 18 18 18 18 18 21 24 27 29 30 31 31 31 31
20 19 18 17 16 14 13 13 13 12 12 12 11 11 12 12 13 13 12 11 11 11 11 11 12 13 13 12 12 12 12 12 11 11 11 11 11 11 11 11 11 11 10 10 10 10 10 10 10 10 11 11 11 11 10 10 10 10 11 11 10 10 10 10 10 11 11 12 13 15 16 17 18 19 20 20 20 21 22 23 24 25 25 26 27
20 19 18 17 16 15 13 13 12 12 12 11 11 10 11 11 12 12 12 11 11 11 11 11 11 12 12 12 12 12 12 12 12 12 11 11 11 11 11 11 11 11 11 11 11 10 10 10 10 10 11 11 11 11 11 10 10 10 10 10 11 11 11 10 10 10 10 11 11 13 14 15 16 18 20 21 22 22 22 22 22 23 23 24 24
20 19 19 18 16 15 14 13 12 12 11 11 11 10 10 10 11 11 11 11 11 11 11 11 11 12 12 12 12 12 12 12 12 12 12 12 12 12 12 12 12 11 12 12 12 11 11 11 10 10 10 11 11 12 12 11 11 10 10 10 10 10 10 10 10 10 10 10 10 11 12 13 14 15 17 19 21 22 22 22 22 22 23 23 23
20 20 19 18 17 16 14 13 12 12 12 11 11 10 10 10 10 10 10 10 10 10 11 11 11 12 12 12 12 12 12 12 12 12 12 12 13 12 13 13 13 13 12 12 12 12 12 12 11 11 11 11 11 12 12 13 12 12 12 11 11 10 10 10 10 10 9 9 9 10 11 11 12 13 14 16 18 19 20 20 20 21 21 21 22
21 20 19 18 17 16 15 14 13 13 12 12 11 10 10 10 10 10 10 10 10 10 10 10 11 11 12 12 12 12 12 12 12 12 12 13 13 13 13 13 13 13 13 13 13 13 13 12 12 12 11 11 11 11 12 13 13 14 14 13 12 12 11 11 10 10 10 10 9 9 10 10 11 11 12 13 15 16 17 18 18 19 20 20 20
21 20 20 19 18 17 16 15 14 13 13 12 12 11 10 10 10 10 10 10 10 10 10 10 10 11 11 12 12 12 12 13 12 12 13 13 13 13 13 13 13 14 14 14 14 14 13 13 13 13 12 12 12 12 12 12 13 14 15 15 15 14 13 13 12 12 11 11 11 10 10 10 10 11 11 12 13 14 14 15 16 17 17 18 18
21 21 20 19 19 18 17 16 15 14 14 13 12 11 11 11 11 11 11 10 10 10 10 10 10 10 11 11 12 12 12 12 12 13 13 13 13 14 14 14 14 14 14 14 14 14 14 14 14 14 14 13 13 13 13 13 13 14 15 16 16 16 16 15 14 14 14 13 12 12 12 11 11 11 11 11 11 12 12 13 14 15 15 16 16
Wind_Direction
317 319 320 321 322 321 322 322 322 322 320 319 317 315 316 317 321 325 330 334 337 338 339 338 335 331 332 337 343 347 350 349 340 321 291 269 256 248 243 238 235 234 233 233 235 236 237 236 234 232 232 232 231 230 229 229 232 236 239 239 238 237 236 237 238 237 235 235 234 234 234 234 235 235 236 236 236 236 236 236 236 236 236 236 236
312 314 314 315 316 316 316 317 318 319 319 318 317 315 313 313 316 321 327 332 336 337 338 339 337 333 331 335 342 348 354 357 356 348 325 293 267 253 245 240 236 234 234 234 235 237 238 238 236 233 232 233 234 234 233 234 236 240 242 243 243 242 240 239 240 240 239 237 235 235 235 236 236 236 236 236 236 236 235 235 235 236 237 237 237
309 309 309 310 311 311 312 314 314 316 317 318 317 315 313 311 312 316 322 329 334 336 336 337 338 336 333 334 339 346 355 1 3 2 353 329 292 266 252 244 239 236 236 237 238 240 241 241 239 237 235 236 238 239 239 240 241 240 240 241 241 239 238 239 240 241 241 240 237 236 236 236 237 237 237 236 236 236 236 235 234 234 235 236 237
308 307 306 306 307 308 309 310 312 314 316 317 317 315 314 312 311 313 318 324 331 333 334 336 338 338 337 335 336 342 351 0 6 7 4 354 329 291 264 250 243 239 238 239 240 242 243 244 243 241 241 242 243 244 244 243 242 238 236 237 237 235 234 234 237 240 242 242 239 237 236 235 235 236 238 238 238 237 236 236 235 235 234 235 236
306 305 305 304 304 305 305 307 308 310 312 314 315 314 314 313 312 313 315 320 327 331 332 333 335 337 338 337 336 337 343 354 3 7 7 2 350 323 285 260 248 242 240 240 241 242 243 244 244 244 244 245 247 247 244 239 236 236 237 237 235 233 232 231 233 237 240 242 241 239 237 235 235 235 237 239 240 239 238 237 236 236 235 235 235
304 303 303 303 303 303 303 304 305 306 308 311 312 313 314 314 314 313 315 319 325 329 331 332 333 335 335 336 336 334 336 343 352 1 5 3 356 340 310 277 258 248 243 240 239 240 241 242 242 242 244 245 246 246 241 232 228 231 236 239 237 234 233 232 232 234 237 241 241 240 237 235 234 234 235 238 239 240 240 239 238 237 237 236 236
303 301 301 302 302 302 302 302 303 303 305 307 309 311 313 315 316 316 317 321 325 328 330 330 331 332 331 333 335 333 331 332 338 348 356 0 358 348 330 302 276 260 251 246 243 240 240 241 241 241 242 244 244 243 238 231 228 228 230 235 237 236 235 234 234 234 236 238 240 240 238 235 233 233 233 235 238 239 240 241 239 238 237 238 238
301 300 300 300 300 301 301 301 302 302 302 304 307 309 312 315 317 319 320 323 326 328 329 329 330 330 328 331 334 333 330 328 330 336 343 349 352 349 340 324 301 279 264 255 249 245 243 243 243 242 242 243 244 243 239 233 231 231 231 232 232 233 233 234 235 235 235 236 238 239 239 236 233 232 232 233 236 237 239 241 241 240 239 239 239
301 300 299 299 299 300 301 301 301 300 300 302 304 306 310 313 316 320 323 324 325 326 327 329 330 330 329 330 333 333 333 333 332 332 333 336 342 343 339 334 324 305 283 267 257 251 247 246 245 244 242 241 242 242 242 239 236 234 234 235 234 233 232 232 234 235 235 236 237 238 239 238 235 233 233 234 235 237 239 241 242 241 240 240 239
301 300 298 299 298 299 300 301 301 300 299 300 301 302 306 310 315 321 324 324 324 325 326 328 329 331 331 330 330 332 334 337 336 334 332 330 332 337 336 333 331 325 310 288 270 259 252 248 246 245 243 241 240 240 240 241 240 239 238 238 238 238 235 232 232 234 235 235 236 237 238 238 237 236 236 236 236 237 238 240 241 241 240 239 239
301 300 299 298 298 298 299 299 299 299 299 299 299 299 302 306 312 319 322 323 322 322 324 326 328 331 333 331 329 329 332 336 338 340 340 334 330 331 331 328 326 325 323 313 291 273 261 253 247 245 244 243 241 240 239 239 240 241 241 241 240 238 234 231 232 233 234 235 235 235 236 237 237 237 238 237 235 235 235 237 239 239 238 237 237
303 301 300 299 298 298 298 298 298 298 299 298 297 297 298 301 307 313 317 320 319 318 320 322 325 330 332 331 328 327 331 335 339 345 347 342 335 330 325 319 317 316 317 319 314 297 277 264 255 248 245 244 243 242 240 240 240 240 241 241 240 237 232 231 233 233 233 234 233 233 234 235 235 234 234 234 232 232 233 234 237 238 237 234 235
311 304 302 300 299 299 298 299 299 298 297 297 295 295 296 297 300 306 311 314 315 313 313 316 322 326 330 330 327 327 332 335 339 346 351 351 347 340 329 318 313 311 311 315 318 317 305 285 270 258 250 246 244 242 241 240 241 241 241 241 239 236 232 232 234 233 231 233 233 232 232 233 232 230 228 229 230 231 232 233 235 236 234 232 234
322 313 307 303 302 300 299 299 300 298 297 295 293 293 294 294 296 299 304 309 310 308 306 309 316 321 327 332 331 330 333 333 335 345 353 354 353 349 342 328 315 310 310 313 316 318 319 309 290 273 260 252 247 244 242 241 240 241 241 240 237 234 233 234 235 233 231 231 232 232 231 230 231 231 226 225 228 231 233 235 237 238 238 236 236
329 323 315 309 306 305 302 300 299 298 298 295 293 292 291 292 293 294 298 303 305 303 299 302 309 315 323 332 335 334 335 329 328 341 353 347 340 338 340 336 326 315 308 308 311 314 316 314 307 290 271 259 253 249 245 242 241 239 239 238 236 234 235 237 239 236 233 232 233 233 231 228 229 230 225 221 225 231 235 234 233 239 243 242 239
331 329 325 317 310 307 305 303 299 298 298 297 295 292 290 289 289 290 293 298 300 298 294 295 301 308 317 327 333 334 332 322 316 328 349 342 329 323 323 324 327 327 315 304 302 305 308 309 308 303 288 270 258 253 251 247 243 239 238 236 235 236 236 238 239 236 234 234 233 233 231 228 225 226 223 219 219 227 234 231 226 229 236 239 241
329 328 328 323 316 310 307 305 301 297 296 296 296 294 291 288 286 287 289 291 294 294 291 291 295 302 310 318 326 329 327 317 308 308 320 320 309 308 308 309 313 319 316 305 296 294 294 297 300 301 297 286 267 252 248 249 246 242 239 236 235 236 236 234 232 231 232 233 233 232 232 229 225 222 221 219 217 218 224 226 227 231 234 237 241
328 326 326 325 322 317 311 307 303 298 295 295 296 296 293 288 284 284 285 286 288 288 285 285 291 298 304 309 315 320 323 318 308 305 304 288 277 287 296 301 305 305 301 296 287 279 276 278 283 288 290 289 282 267 252 247 245 240 238 237 236 235 234 231 230 230 230 232 233 232 231 230 227 223 220 219 218 217 219 221 226 234 237 239 243
330 328 326 324 323 322 317 311 306 300 296 295 296 296 294 290 285 283 283 284 286 285 281 279 284 292 298 302 306 311 317 316 309 305 302 289 277 278 283 291 297 299 298 293 280 265 257 256 262 271 277 278 278 277 270 260 253 246 240 238 237 236 234 231 232 232 232 232 233 232 231 230 228 225 224 222 219 220 221 219 222 231 238 242 246
332 331 329 325 322 322 321 317 310 304 299 296 295 294 294 293 288 285 285 286 287 288 284 277 277 285 290 295 300 304 309 313 309 302 298 290 283 279 279 283 289 295 299 299 293 279 265 254 250 255 263 267 267 272 276 273 268 262 253 246 241 236 233 232 231 231 232 232 232 231 230 229 228 226 226 224 222 223 225 222 222 230 238 242 245
333 333 331 329 324 321 321 320 316 308 301 297 294 293 294 294 291 288 289 289 289 290 288 282 279 282 285 288 292 297 302 308 306 298 294 291 286 281 278 279 283 287 293 299 300 296 287 275 261 252 254 257 259 261 267 272 274 272 265 259 251 240 236 236 234 233 232 231 229 228 226 226 226 225 224 224 224 226 229 227 225 230 237 241 244
332 332 332 331 328 323 320 320 319 313 305 298 294 291 292 292 292 291 291 291 291 290 288 284 281 282 286 287 289 292 297 302 303 299 295 292 286 280 278 278 280 283 287 291 293 294 292 286 277 261 252 249 247 248 250 255 263 268 271 269 261 249 245 245 244 242 239 234 230 229 227 225 224 223 222 223 224 224 227 229 230 232 236 239 243
331 332 333 332 329 325 321 319 319 316 308 300 294 291 289 288 290 292 293 293 294 292 291 289 287 286 289 290 290 292 294 297 299 299 298 294 287 281 278 277 278 280 283 285 286 287 287 284 280 269 257 248 242 239 239 240 247 257 267 271 266 262 263 261 255 252 249 242 236 233 231 229 228 226 225 224 223 220 223 228 233 236 239 241 243
330 332 333 332 330 327 323 319 318 317 312 304 294 289 287 286 287 290 292 294 295 295 294 294 292 291 289 288 290 293 294 295 296 297 297 295 291 285 279 275 275 276 278 279 281 281 280 278 276 272 265 256 248 244 241 238 238 244 252 257 254 253 258 262 261 259 254 247 240 236 233 232 231 230 228 226 224 221 222 227 232 236 239 240 242
330 331 332 333 332 329 325 321 319 318 315 309 300 291 286 285 285 287 290 292 294 295 296 296 296 294 292 290 290 292 295 296 296 296 296 295 292 288 282 275 272 271 272 274 276 279 278 275 273 273 271 265 259 253 248 245 242 241 243 244 243 243 247 253 258 260 258 252 244 238 235 233 231 230 228 226 225 224 223 225 228 232 235 238 242
328 330 331 332 332 330 327 324 322 320 318 314 308 300 291 285 284 285 288 291 294 296 297 297 298 297 296 295 294 294 295 296 296 296 296 294 292 289 284 278 271 267 266 268 272 275 276 274 270 270 270 269 266 261 255 251 248 245 243 240 240 242 247 252 257 261 262 258 250 243 238 232 229 227 226 227 226 224 222 223 226 229 233 238 243
326 328 329 331 332 331 330 327 324 322 321 319 317 312 303 294 287 285 287 289 292 295 296 297 298 298 299 297 294 294 296 296 296 296 295 294 291 288 283 278 272 266 264 265 268 272 274 273 269 267 267 268 269 266 261 255 250 246 244 241 239 241 246 252 257 261 263 260 254 248 239 229 223 223 224 225 224 222 222 225 229 232 235 238 241
325 327 328 329 330 331 331 329 324 321 322 324 325 322 316 308 299 292 289 290 291 293 294 295 297 299 299 298 295 296 297 298 297 297 295 292 288 284 278 274 271 267 263 261 264 268 270 269 268 265 265 267 269 269 264 258 251 246 243 241 240 239 240 244 249 256 260 257 249 240 229 219 217 218 221 223 223 222 224 227 231 233 235 237 240
322 325 326 328 329 330 332 330 325 321 323 327 328 327 323 316 309 301 296 294 293 294 296 298 300 301 302 301 300 300 300 300 300 299 298 294 289 283 275 270 267 264 258 256 258 260 262 263 262 261 263 266 268 268 264 257 251 247 244 241 237 235 235 237 241 247 251 248 240 230 220 216 216 219 222 224 225 225 226 228 230 232 234 237 239
320 323 325 326 327 329 331 331 327 323 324 327 328 328 326 322 316 309 305 302 301 301 303 305 307 308 308 308 308 307 307 306 305 304 302 299 295 289 281 275 269 260 251 250 252 252 253 256 257 260 263 265 266 268 266 260 251 244 242 240 235 232 232 233 233 231 229 230 228 221 218 219 220 223 226 228 229 228 227 228 230 232 234 236 238
318 320 323 324 326 327 330 331 329 324 322 324 327 329 328 325 322 317 312 311 311 312 313 315 315 315 315 315 316 315 314 314 311 308 305 301 297 292 287 282 275 263 254 253 251 250 251 254 257 261 264 266 266 267 266 262 254 243 239 237 233 230 229 231 231 226 217 216 215 212 214 219 222 225 228 230 231 231 230 231 233 235 236 238 240
316 318 320 322 324 326 328 330 329 325 322 320 323 328 330 326 322 319 316 314 315 316 320 322 322 321 322 322 322 322 321 319 315 309 304 301 297 293 290 285 276 266 259 257 256 256 259 262 265 268 270 271 272 269 264 261 255 246 239 236 233 230 227 228 231 228 221 216 213 209 211 222 227 226 226 227 229 232 232 233 235 238 240 242 243
313 316 319 320 323 324 326 329 330 327 323 319 317 323 330 328 323 319 315 314 314 315 319 323 324 324 326 327 327 328 327 324 319 312 303 298 296 294 291 287 279 270 265 264 264 264 264 266 270 273 275 279 281 276 268 261 256 250 242 236 234 232 229 227 229 229 225 221 217 212 212 223 231 232 230 229 228 229 230 231 233 238 242 244 243
311 314 317 319 322 323 325 328 329 328 325 320 316 317 322 326 326 322 315 313 313 314 317 321 324 325 327 328 329 331 331 329 323 313 303 299 298 296 291 287 284 280 275 271 268 264 262 268 276 285 292 296 297 288 276 265 258 251 245 239 235 233 231 230 230 230 228 226 224 219 215 217 222 226 229 231 230 229 230 231 232 237 244 245 240
308 312 315 318 320 322 324 326 328 328 326 322 318 316 316 319 324 326 321 316 312 311 313 316 319 322 324 325 328 333 336 335 328 314 302 298 297 295 291 287 288 286 281 275 271 269 272 283 292 298 303 304 302 295 283 270 259 250 245 243 240 236 232 230 230 231 231 230 229 227 223 222 223 224 226 229 231 231 231 231 232 233 238 239 234
305 309 313 316 319 321 323 325 327 328 326 323 320 317 315 315 318 323 325 324 319 313 311 311 314 317 319 321 327 337 343 343 337 326 316 307 302 299 295 290 289 287 285 285 285 286 288 293 295 298 300 300 298 294 285 273 263 253 245 243 242 240 237 233 231 231 232 232 233 231 229 229 230 229 229 230 232 232 232 232 233 233 232 229 225
302 306 310 314 318 322 323 325 326 326 325 325 323 319 316 314 315 318 323 325 325 323 317 313 313 315 318 323 331 339 346 347 342 332 319 306 297 293 289 287 286 284 286 291 294 296 295 293 291 293 294 295 295 293 287 277 268 259 252 246 243 241 240 237 235 234 234 235 237 235 232 230 229 230 232 233 231 231 233 233 232 230 227 224 223
299 303 307 310 316 320 322 324 325 325 324 325 325 323 320 318 315 316 319 323 326 326 323 318 313 312 316 324 331 336 341 345 346 343 333 320 309 300 293 291 289 288 290 293 296 298 297 295 292 290 289 290 291 290 286 280 270 262 258 253 248 244 241 238 237 236 235 236 236 235 234 231 227 225 228 231 229 228 231 233 231 227 225 224 225
295 299 302 306 312 317 319 322 323 323 324 325 325 325 324 323 320 317 316 319 322 324 324 321 314 309 311 317 324 331 337 341 343 342 337 329 320 313 308 304 299 297 297 296 296 297 295 294 292 290 288 287 287 285 283 280 273 265 260 256 253 251 246 241 239 238 239 239 237 233 232 232 228 224 224 226 228 228 229 231 231 230 229 228 228
291 294 297 301 307 312 316 320 321 321 322 324 326 327 327 326 325 321 316 315 317 319 320 319 315 310 307 308 312 319 325 329 331 331 328 324 320 315 312 309 306 305 304 301 300 299 296 293 292 290 288 287 286 284 282 279 274 268 264 259 256 255 253 249 245 241 239 239 237 232 230 230 229 226 223 223 225 227 229 230 231 232 233 233 232
287 289 293 296 301 307 313 316 319 321 321 322 325 328 328 328 327 324 319 315 314 313 314 314 313 311 306 302 300 302 305 308 313 315 317 319 318 316 313 311 309 309 309 308 307 304 299 295 292 289 287 287 287 286 284 280 276 273 269 264 259 256 254 253 251 246 241 238 234 231 229 228 229 229 225 222 221 223 226 229 230 231 233 235 236
284 286 289 292 297 303 309 313 316 319 320 322 325 327 327 328 328 327 324 320 315 312 310 309 308 310 309 306 303 301 301 303 305 306 307 309 310 312 314 314 312 312 311 312 312 311 306 300 294 289 286 286 286 287 285 281 277 276 273 270 266 258 253 253 253 250 246 242 236 232 230 229 230 229 226 223 220 220 222 225 229 231 234 236 239
280 283 285 288 293 299 305 310 314 317 319 322 324 325 326 327 327 327 328 326 321 317 313 309 307 308 309 310 311 310 309 308 308 308 309 308 307 308 308 308 311 312 312 312 312 312 310 305 299 293 289 287 287 289 287 281 277 275 274 273 272 265 258 255 254 252 250 247 241 236 232 230 229 227 225 223 222 221 223 226 230 233 235 237 239
277 279 281 285 289 293 300 306 310 314 318 321 322 324 324 324 324 326 329 330 328 325 320 315 312 309 308 309 311 311 312 313 313 313 314 313 312 310 307 305 305 307 308 309 311 311 310 308 303 297 293 291 290 290 287 282 278 277 275 273 272 270 265 261 257 254 251 248 244 239 233 229 227 226 224 222 221 221 223 227 230 233 235 236 238
274 275 277 279 283 287 294 299 304 310 315 317 319 322 322 321 321 324 327 330 332 331 328 324 320 315 312 310 309 308 310 312 314 315 316 315 314 313 312 309 307 305 304 305 307 308 309 309 305 301 297 294 292 291 289 284 279 277 276 275 273 271 268 265 261 257 252 246 241 236 232 228 227 225 224 223 222 221 221 223 226 229 231 233 235
271 271 273 274 277 281 286 291 298 304 307 311 314 318 318 319 319 321 324 328 331 333 333 332 328 324 319 316 312 310 309 308 309 310 312 312 312 312 311 310 309 308 307 305 304 304 305 304 304 303 301 297 293 291 288 285 280 277 276 276 275 273 271 268 264 259 255 248 241 234 228 225 225 225 225 224 224 223 224 225 226 228 230 231 232
268 268 269 270 272 275 279 284 290 296 300 304 308 312 314 316 316 318 321 325 328 331 334 335 333 331 328 324 320 318 314 311 309 308 307 308 309 309 308 307 306 305 304 304 303 302 300 299 298 298 298 297 295 292 287 283 279 274 273 274 274 274 273 271 267 264 260 255 249 240 232 226 223 223 224 225 225 225 225 226 227 229 230 231 231
266 266 266 267 268 271 274 278 283 288 292 296 301 306 310 312 313 315 319 322 325 328 332 333 333 333 331 329 327 326 323 320 317 313 309 306 306 305 305 305 304 303 302 301 300 300 299 298 296 294 292 291 290 289 286 282 277 272 270 269 268 269 271 271 270 268 264 259 255 249 243 236 230 227 226 225 224 223 223 223 224 225 226 227 228
263 263 264 264 265 267 270 273 277 281 285 290 294 300 304 306 309 311 315 318 322 325 328 330 331 331 329 329 329 329 328 327 325 322 318 313 309 306 304 303 303 303 302 301 299 298 297 295 293 291 289 287 285 283 281 279 276 273 270 266 264 263 263 263 264 265 264 261 257 251 248 244 238 234 232 231 227 224 222 220 220 220 220 221 222
261 261 262 261 263 265 267 269 272 276 280 284 289 293 298 302 304 306 310 314 318 321 324 326 328 327 326 327 327 327 328 329 328 327 326 322 318 314 310 306 303 302 301 300 299 298 295 293 292 289 286 284 282 280 277 275 273 271 269 266 264 262 259 257 256 256 256 257 255 252 248 244 239 235 234 234 233 230 227 223 220 219 218 219 219
260 260 259 259 260 262 263 265 268 271 275 279 283 288 292 295 297 300 303 307 311 315 318 321 322 322 323 323 323 324 325 326 327 328 328 326 323 320 317 313 309 306 302 299 298 297 295 294 292 288 285 283 280 277 275 273 271 269 267 265 263 261 259 257 255 253 251 251 252 251 249 245 241 236 233 231 230 230 229 226 223 219 217 217 217